Simultaneous Nadir Overpasses (SNOs) Predictions

Prediction of SNOs between GOES-17 and NPP Satellite Orbit:

Table of predicted SNOs for the next 14.0 days since TLE Epoch: 6/22/2024
Index Date Time (GOES-17) GOES-17 Lat,Lon NPP Lat,Lon Distance(km) Time Diff (sec)
1 06/23/2024 08:26:16 -0.01,-104.70 0.06,-104.99 32.55 80
2 06/24/2024 08:04:53 -0.01,-104.70 -0.98,-100.47 482.59 80
3 06/25/2024 20:26:51 0.02,-104.70 -0.23,-105.78 123.13 80
4 06/26/2024 20:10:49 0.02,-104.70 0.81,-101.26 392.46 80
5 06/28/2024 08:32:39 -0.02,-104.70 0.39,-106.54 209.64 80
6 06/29/2024 08:11:16 -0.02,-104.70 -0.60,-102.01 305.93 80
7 06/30/2024 20:33:15 0.02,-104.70 -0.55,-107.33 299.84 80
8 07/01/2024 20:17:12 0.02,-104.70 0.44,-102.80 215.76 80
9 07/03/2024 08:39:02 -0.03,-104.70 0.75,-108.08 386.31 80
10 07/04/2024 08:17:39 -0.03,-104.70 -0.30,-103.57 129.06 80
11 07/05/2024 20:39:38 0.04,-104.69 -0.89,-108.88 477.20 80
